Location: *
(43.4667°N, 11.6833°E)
Time: 18:46:09
(UTC+00:00)

Cosmos 1992 Rocket - Visible Passes

Search period start: 22 October 2019 00:00
Search period end: 01 November 2019 00:00
Orbit: 759 x 765 km, 74.0° (Epoch: 22 October)

Date Brightness Start Highest point End Pass type
(mag) Time Alt. Az. Time Alt. Az. Time Alt. Az.
22 Oct 6.0 17:02:35 10° WSW 17:07:07 29° WNW 17:11:40 10° N visible
24 Oct 6.7 17:29:40 10° WNW 17:32:07 13° NW 17:34:35 10° NNW visible
25 Oct 6.4 16:49:00 10° WSW 16:52:56 21° NW 16:56:52 10° N visible
28 Oct 6.5 16:35:48 10° W 16:38:49 15° NW 16:41:49 10° NNW visible
